STARLINK-31497 (60592 NORAD) Tracking and Keplerian Element Data

This shows tracking and keplerian element data for the satellite.

Feedback or suggestion? Click here.




ElementValue
Catalog60592
NameSTARLINK-31497
Epoch Orbit944
Epoch Day286.40309833
Epoch Year2024
RAAN171.99
Inclination53.1596
Eccentricity3.99E-05
Argument of Perigee120.444
Mean Anonmoly239.6604
Mean Motion15.39604991
Decay Rate-5.151E-05
L11 60592U 24150K 24286.40309833 -.00005151 00000+0 -11895-3 0 9996
L22 60592 53.1596 171.9900 0000399 120.4440 239.6604 15.39604991 9440



Live tracking and technical data element details for STARLINK-31497 (NORAD 60592). STARLINK-31497 can be tracked NOW for your location showing map with azimuth and elevation plus other details from your city location.







IsCatalogInMostPopularTable: catalog: 60592, numindb: 8
Update: records affected: 1



GetName: 60592 STARLINK-31497

Hit Count: updated at: Wed, 04 Dec 2024 18:18:19 GMT